Weather History for KRAS - September, 2013

Change the Weather History Date:

Friday, September 27, 2013

  Actual Average (KCRP) Record (KCRP)
Temperature  
Mean Temperature 84 °F 79 °F  
Max Temperature 88 °F 88 °F 99 °F (2011)
Min Temperature 81 °F 70 °F 52 °F (2000)
Degree Days  
Heating Degree Days 0 0  
Month to date heating degree days 0  
Since 1 July heating degree days 0  
Cooling Degree Days 20 14  
Month to date cooling degree days 442  
Year to date cooling degree days 3003  
Growing Degree Days 34 (Base 50)    
Moisture  
Dew Point 77 °F    
Average Humidity 80    
Maximum Humidity 86    
Minimum Humidity 71    
Precipitation  
Precipitation 0.00 in 0.14 in 1.85 in (1943)
Month to date precipitation 4.55  
Year to date precipitation 23.89  
Snow  
Snow 0.00 in - - ()
Month to date snowfall  
Since 1 July snowfall  
Since 1 September snowfall  
Snow Depth -    
Sea Level Pressure  
Sea Level Pressure 29.86 in    
Wind  
Wind Speed 13 mph (SE)    
Max Wind Speed 17 mph    
Max Gust Speed 22 mph    
Visibility 10 miles    
Events      
T = Trace of Precipitation, MM = Missing Value Source: NWS Daily Summary

Daily Weather History Graph

Daily Weather History Graph

Search for Another Location

Airport or City:

Trip Planner

Search our weather history database for the weather conditions in past years. The results will help you decide how hot, cold, wet, or windy it might be!

Date:

Astronomy

Sep. 27, 2013 Rise Set
Actual Time 7:19 AM CDT 7:18 PM CDT
Civil Twilight 6:55 AM CDT 7:42 PM CDT
Nautical Twilight 6:28 AM CDT 8:09 PM CDT
Astronomical Twilight 6:01 AM CDT 8:36 PM CDT
Moon 12:43 AM CDT (9/27) 2:31 PM CDT (9/27)
Length of Visible Light 12h 46m
Length of Day
11h 59m
Last Quarter, 45% of the Moon is Illuminated
Sep 27
Last Quarter
Oct 4
New
Oct 11
First Quarter
Oct 18
Full
Oct 26
Last Quarter

Hourly Weather History & Observations

Time (CDT) Temp. Heat Index Dew Point Humidity Pressure Visibility Wind Dir Wind Speed Gust Speed Precip Events Conditions
12:15 AM 81.9 °F 88.5 °F 75.2 °F 80% 29.87 in 10.0 mi SSE 15.0 mph 18.4 mph N/A   Scattered Clouds
12:35 AM 82.0 °F 88.4 °F 74.5 °F 78% 29.87 in 10.0 mi SSE 13.8 mph 20.7 mph N/A   Scattered Clouds
12:55 AM 81.9 °F 88.2 °F 74.8 °F 79% 29.87 in 10.0 mi SSE 11.5 mph 18.4 mph N/A   Scattered Clouds
1:15 AM 81.7 °F 87.6 °F 74.3 °F 78% 29.87 in 10.0 mi SSE 13.8 mph 19.6 mph N/A   Clear
1:35 AM 81.5 °F 87.4 °F 74.5 °F 79% 29.86 in 10.0 mi SSE 11.5 mph 19.6 mph N/A   Clear
1:55 AM 81.5 °F 87.8 °F 75.2 °F 81% 29.86 in 10.0 mi SSE 12.7 mph 18.4 mph N/A   Scattered Clouds
2:15 AM 81.5 °F 87.8 °F 75.0 °F 81% 29.86 in 10.0 mi SSE 12.7 mph - N/A   Scattered Clouds
2:35 AM 81.5 °F 87.4 °F 74.5 °F 79% 29.86 in 10.0 mi SSE 13.8 mph - N/A   Scattered Clouds
2:55 AM 81.3 °F 87.0 °F 74.3 °F 79% 29.86 in 10.0 mi SSE 12.7 mph - N/A   Clear
3:15 AM 81.1 °F 87.0 °F 74.7 °F 81% 29.85 in 10.0 mi SSE 13.8 mph 17.3 mph N/A   Clear
3:35 AM 81.5 °F 87.8 °F 75.2 °F 81% 29.85 in 10.0 mi South 12.7 mph 17.3 mph N/A   Clear
3:55 AM 81.5 °F 87.8 °F 75.2 °F 81% 29.84 in 10.0 mi South 12.7 mph 18.4 mph N/A   Scattered Clouds
4:15 AM 81.5 °F 87.8 °F 75.2 °F 81% 29.84 in 10.0 mi SSE 11.5 mph - N/A   Mostly Cloudy
4:35 AM 81.5 °F 87.8 °F 75.2 °F 81% 29.84 in 10.0 mi South 12.7 mph - N/A   Mostly Cloudy
4:55 AM 81.5 °F 87.8 °F 75.2 °F 81% 29.84 in 10.0 mi SSE 11.5 mph - N/A   Scattered Clouds
5:15 AM 81.5 °F 88.0 °F 75.4 °F 82% 29.84 in 10.0 mi SSE 13.8 mph 17.3 mph N/A   Mostly Cloudy
5:35 AM 81.5 °F 88.3 °F 75.7 °F 83% 29.84 in 10.0 mi SSE 10.4 mph - N/A   Scattered Clouds
5:55 AM 81.5 °F 88.3 °F 75.9 °F 83% 29.84 in 10.0 mi SSE 9.2 mph - N/A   Scattered Clouds
6:15 AM 81.5 °F 88.5 °F 76.1 °F 84% 29.85 in 10.0 mi SSE 11.5 mph 16.1 mph N/A   Scattered Clouds
6:35 AM 81.7 °F 89.0 °F 76.5 °F 84% 29.85 in 10.0 mi SSE 11.5 mph 16.1 mph N/A   Mostly Cloudy
6:55 AM 81.5 °F 89.0 °F 77.0 °F 86% 29.86 in 10.0 mi SSE 12.7 mph - N/A   Mostly Cloudy
7:15 AM 81.5 °F 89.0 °F 77.0 °F 86% 29.86 in 10.0 mi SSE 13.8 mph 17.3 mph N/A   Mostly Cloudy
7:35 AM 81.7 °F 89.5 °F 77.0 °F 86% 29.86 in 10.0 mi SE 12.7 mph 19.6 mph N/A   Mostly Cloudy
7:55 AM 82.0 °F 90.2 °F 77.2 °F 85% 29.86 in 10.0 mi SSE 12.7 mph 17.3 mph N/A   Scattered Clouds
8:15 AM 82.6 °F 91.4 °F 77.4 °F 84% 29.87 in 10.0 mi SSE 12.7 mph 18.4 mph N/A   Mostly Cloudy
8:35 AM 83.3 °F 93.1 °F 77.5 °F 83% 29.88 in 10.0 mi SSE 10.4 mph 18.4 mph N/A   Mostly Cloudy
8:55 AM 84.2 °F 94.9 °F 77.9 °F 81% 29.88 in 10.0 mi SSE 12.7 mph 19.6 mph N/A   Mostly Cloudy
9:15 AM 84.7 °F 96.1 °F 77.9 °F 80% 29.88 in 10.0 mi SSE 13.8 mph 19.6 mph N/A   Mostly Cloudy
9:35 AM 84.6 °F 96.0 °F 78.1 °F 81% 29.89 in 10.0 mi SSE 12.7 mph 18.4 mph N/A   Mostly Cloudy
9:55 AM 86.0 °F 97.8 °F 77.7 °F 76% 29.89 in 10.0 mi SSE 12.7 mph 18.4 mph N/A   Scattered Clouds
10:15 AM 86.4 °F 98.8 °F 78.1 °F 76% 29.89 in 10.0 mi SSE 12.7 mph 17.3 mph N/A   Scattered Clouds
10:35 AM 86.7 °F 99.9 °F 78.4 °F 76% 29.90 in 10.0 mi SSE 12.7 mph 18.4 mph N/A   Clear
10:55 AM 86.5 °F 98.3 °F 77.4 °F 74% 29.90 in 10.0 mi SE 13.8 mph - N/A   Scattered Clouds
11:15 AM 86.9 °F 99.3 °F 77.5 °F 74% 29.90 in 10.0 mi SSE 15.0 mph 19.6 mph N/A   Scattered Clouds
11:35 AM 87.3 °F 99.8 °F 77.5 °F 73% 29.91 in 10.0 mi SSE 13.8 mph 20.7 mph N/A   Scattered Clouds
11:55 AM 87.3 °F 100.4 °F 78.1 °F 74% 29.90 in 10.0 mi SSE 13.8 mph 19.6 mph N/A   Clear
12:15 PM 87.8 °F 101.3 °F 78.1 °F 73% 29.90 in 10.0 mi SSE 10.4 mph 19.6 mph N/A   Clear
12:35 PM 87.3 °F 100.4 °F 78.1 °F 74% 29.90 in 10.0 mi SE 10.4 mph 19.6 mph N/A   Scattered Clouds
12:55 PM 87.8 °F 100.8 °F 77.9 °F 72% 29.89 in 10.0 mi SSE 11.5 mph 18.4 mph N/A   Scattered Clouds
1:15 PM 88.3 °F 101.7 °F 77.9 °F 71% 29.89 in 10.0 mi SE 13.8 mph - N/A   Scattered Clouds
1:35 PM 87.6 °F 100.8 °F 77.9 °F 73% 29.88 in 10.0 mi SE 13.8 mph - N/A   Scattered Clouds
1:55 PM 86.7 °F 99.3 °F 78.1 °F 75% 29.87 in 10.0 mi SSE 15.0 mph 19.6 mph N/A   Mostly Cloudy
2:15 PM 87.8 °F 100.8 °F 77.9 °F 72% 29.86 in 10.0 mi SE 10.4 mph 17.3 mph N/A   Scattered Clouds
2:35 PM 88.0 °F 101.9 °F 78.3 °F 73% 29.85 in 10.0 mi SE 13.8 mph 17.3 mph N/A   Scattered Clouds
2:55 PM 87.6 °F 101.4 °F 78.3 °F 74% 29.85 in 10.0 mi SE 11.5 mph 17.3 mph N/A   Scattered Clouds
3:15 PM 87.6 °F 100.8 °F 78.1 °F 73% 29.84 in 10.0 mi SSE 13.8 mph - N/A   Scattered Clouds
3:35 PM 87.8 °F 101.3 °F 78.1 °F 73% 29.83 in 10.0 mi SE 13.8 mph - N/A   Scattered Clouds
3:55 PM 88.2 °F 103.0 °F 78.8 °F 74% 29.84 in 10.0 mi SE 13.8 mph 17.3 mph N/A   Scattered Clouds
4:15 PM 87.8 °F 102.5 °F 78.8 °F 75% 29.83 in 10.0 mi SE 10.4 mph 17.3 mph N/A   Scattered Clouds
4:35 PM 87.3 °F 100.9 °F 78.4 °F 75% 29.83 in 10.0 mi SE 15.0 mph 19.6 mph N/A   Scattered Clouds
4:55 PM 86.7 °F 100.4 °F 78.6 °F 77% 29.83 in 10.0 mi SE 10.4 mph - N/A   Mostly Cloudy
5:15 PM 85.8 °F 98.3 °F 78.4 °F 78% 29.83 in 10.0 mi SE 13.8 mph - N/A   Overcast
5:35 PM 86.2 °F 99.8 °F 78.8 °F 79% 29.83 in 10.0 mi SE 11.5 mph 18.4 mph N/A   Mostly Cloudy
5:55 PM 86.0 °F 99.3 °F 78.8 °F 79% 29.83 in 10.0 mi ESE 13.8 mph - N/A   Scattered Clouds
6:15 PM 85.3 °F 98.1 °F 78.8 °F 81% 29.83 in 10.0 mi ESE 13.8 mph 17.3 mph N/A   Clear
6:35 PM 84.7 °F 96.9 °F 78.8 °F 82% 29.83 in 10.0 mi ESE 12.7 mph 19.6 mph N/A   Scattered Clouds
6:55 PM 83.8 °F 94.7 °F 78.3 °F 83% 29.83 in 10.0 mi SE 10.4 mph 17.3 mph N/A   Scattered Clouds
7:15 PM 83.7 °F 93.4 °F 77.4 °F 81% 29.83 in 10.0 mi SE 13.8 mph 19.6 mph N/A   Clear
7:35 PM 83.5 °F 93.6 °F 77.9 °F 83% 29.83 in 10.0 mi ESE 12.7 mph 20.7 mph N/A   Clear
7:55 PM 83.3 °F 93.8 °F 78.3 °F 85% 29.84 in 10.0 mi SE 12.7 mph 19.6 mph N/A   Clear
8:15 PM 83.3 °F 94.2 °F 78.8 °F 86% 29.84 in 10.0 mi ESE 15.0 mph 21.9 mph N/A   Scattered Clouds
8:35 PM 83.3 °F 93.8 °F 78.4 °F 85% 29.85 in 10.0 mi SE 11.5 mph 20.7 mph N/A   Mostly Cloudy
8:55 PM 83.3 °F 94.2 °F 78.8 °F 86% 29.85 in 10.0 mi SE 9.2 mph 17.3 mph N/A   Scattered Clouds
9:15 PM 83.1 °F 92.9 °F 77.9 °F 84% 29.86 in 10.0 mi SE 11.5 mph 20.7 mph N/A   Scattered Clouds
9:35 PM 83.3 °F 93.8 °F 78.4 °F 85% 29.86 in 10.0 mi SE 15.0 mph 21.9 mph N/A   Mostly Cloudy
9:55 PM 82.8 °F 92.2 °F 77.9 °F 85% 29.87 in 10.0 mi SE 13.8 mph 20.7 mph N/A   Scattered Clouds
10:15 PM 83.3 °F 93.8 °F 78.4 °F 85% 29.87 in 10.0 mi SE 13.8 mph 20.7 mph N/A   Scattered Clouds
10:35 PM 82.9 °F 92.4 °F 77.7 °F 84% 29.87 in 10.0 mi SE 13.8 mph 20.7 mph N/A   Clear
10:55 PM 82.9 °F 92.8 °F 77.9 °F 85% 29.88 in 10.0 mi SE 17.3 mph 21.9 mph N/A   Scattered Clouds
11:15 PM 82.9 °F 92.8 °F 77.9 °F 85% 29.88 in 10.0 mi SE 12.7 mph 19.6 mph N/A   Scattered Clouds
11:35 PM 82.8 °F 92.2 °F 77.9 °F 85% 29.88 in 10.0 mi SE 12.7 mph 20.7 mph N/A   Scattered Clouds
11:55 PM 82.8 °F 92.2 °F 77.9 °F 85% 29.88 in 10.0 mi SE 16.1 mph 20.7 mph N/A   Scattered Clouds